Allentown, PA

9:02 AM EDT on September 22, 2017 (GMT -0400)
Lehigh Valley International

Weather History for KABE - October, 2013

Change the Weather History Date:

Thursday, October 24, 2013

  Actual Average Record
Temperature  
Mean Temperature 42 °F 50 °F  
Max Temperature 53 °F 61 °F 81 °F (2001)
Min Temperature 30 °F 39 °F 22 °F (1969)
Degree Days  
Heating Degree Days 23 15  
Month to date heating degree days 179 281  
Since 1 July heating degree days 303 396  
Cooling Degree Days 0 0  
Month to date cooling degree days 24 3  
Year to date cooling degree days 927 753  
Moisture  
Dew Point 29 °F    
Average Humidity 66    
Maximum Humidity 92    
Minimum Humidity 39    
Precipitation  
Precipitation T in 0.11 in 2.92 in (1923)
Month to date precipitation 2.37 3.13  
Year to date precipitation 39.29 37.52  
Snow  
Snow 0.00 in 0.00 in T in (1962)
Month to date snowfall 0.0 0.0  
Since 1 July snowfall 0.0 0.0  
Since 1 September snowfall 0.0 0.0  
Snow Depth 0.00 in    
Sea Level Pressure  
Sea Level Pressure 29.94 in    
Wind  
Wind Speed 9 mph (West)    
Max Wind Speed 20 mph    
Max Gust Speed 26 mph    
Visibility 10 miles    
Events Rain    
T = Trace of Precipitation, MM = Missing Value Source: NWS Daily Summary

Daily Weather History Graph

Daily Weather History Graph

Search for Another Location

Airport or City:

Trip Planner

Search our weather history database for the weather conditions in past years. The results will help you decide how hot, cold, wet, or windy it might be!

Date:

Astronomy

Oct. 24, 2013 Rise Set
Actual Time 7:23 AM EDT 6:08 PM EDT
Civil Twilight 6:55 AM EDT 6:36 PM EDT
Nautical Twilight 6:23 AM EDT 7:08 PM EDT
Astronomical Twilight 5:51 AM EDT 7:39 PM EDT
Moon 10:29 PM EDT (10/24) 12:23 PM EDT (10/24)
Length of Visible Light 11h 41m
Length of Day
10h 45m
Waning Gibbous, 71% of the Moon is Illuminated
Oct 24
Waning Gibbous
Oct 26
Last Quarter
Nov 3
New
Nov 10
First Quarter
Nov 17
Full

Hourly Weather History & Observations

Time (EDT) Temp. Windchill Dew Point Humidity Pressure Visibility Wind Dir Wind Speed Gust Speed Precip Events Conditions
12:51 AM 39.9 °F 35.1 °F 33.1 °F 77% 29.82 in 10.0 mi West 6.9 mph - N/A   Clear
1:51 AM 39.9 °F 37.8 °F 32.0 °F 73% 29.84 in 10.0 mi West 3.5 mph - N/A   Clear
2:51 AM 34.0 °F 28.0 °F 30.0 °F 85% 29.85 in 10.0 mi SW 6.9 mph - N/A   Partly Cloudy
3:51 AM 34.0 °F 29.8 °F 30.9 °F 89% 29.87 in 10.0 mi WSW 4.6 mph - N/A   Mostly Cloudy
4:51 AM 34.0 °F 29.8 °F 30.9 °F 89% 29.89 in 10.0 mi SW 4.6 mph - N/A   Mostly Cloudy
5:51 AM 30.0 °F 25.2 °F 28.0 °F 92% 29.91 in 10.0 mi SW 4.6 mph - N/A   Clear
6:51 AM 33.1 °F 30.0 °F 30.0 °F 89% 29.93 in 10.0 mi SW 3.5 mph - N/A   Clear
7:51 AM 33.1 °F 28.7 °F 30.0 °F 89% 29.94 in 10.0 mi SW 4.6 mph - N/A   Clear
8:51 AM 39.9 °F 34.5 °F 33.1 °F 77% 29.95 in 10.0 mi West 8.1 mph - N/A   Clear
9:51 AM 45.0 °F 37.4 °F 33.1 °F 63% 29.95 in 10.0 mi West 18.4 mph 25.3 mph N/A   Clear
10:51 AM 46.9 °F - 30.9 °F 54% 29.95 in 10.0 mi West 15.0 mph 24.2 mph N/A   Partly Cloudy
11:51 AM 48.0 °F - 28.0 °F 46% 29.95 in 10.0 mi West 13.8 mph 18.4 mph N/A   Mostly Cloudy
12:51 PM 48.0 °F - 27.0 °F 44% 29.93 in 10.0 mi WNW 12.7 mph 20.7 mph N/A   Scattered Clouds
1:51 PM 52.0 °F - 27.0 °F 38% 29.91 in 10.0 mi West 11.5 mph 23.0 mph 0.00 in Rain Light Rain
2:51 PM 50.0 °F - 25.0 °F 38% 29.92 in 10.0 mi West 12.7 mph 24.2 mph 0.00 in   Overcast
3:51 PM 48.0 °F - 25.0 °F 41% 29.94 in 10.0 mi West 12.7 mph - 0.00 in   Partly Cloudy
4:51 PM 48.0 °F - 26.1 °F 42% 29.95 in 10.0 mi West 16.1 mph 21.9 mph 0.00 in   Scattered Clouds
5:51 PM 46.0 °F 41.0 °F 28.0 °F 50% 29.97 in 10.0 mi WNW 10.4 mph 20.7 mph N/A   Mostly Cloudy
6:11 PM 44.6 °F 39.7 °F 28.4 °F 53% 29.97 in 2.5 mi West 9.2 mph - N/A   Haze
6:20 PM 44.6 °F 40.2 °F 28.4 °F 53% 29.97 in 10.0 mi West 8.1 mph - N/A   Partly Cloudy
6:51 PM 43.0 °F 37.7 °F 28.0 °F 56% 30.00 in 10.0 mi West 9.2 mph - N/A   Scattered Clouds
7:51 PM 41.0 °F 36.4 °F 28.0 °F 60% 30.01 in 10.0 mi West 6.9 mph - N/A   Clear
8:51 PM 39.0 °F 34.0 °F 27.0 °F 62% 30.02 in 10.0 mi WSW 6.9 mph - N/A   Clear
9:51 PM 39.0 °F 33.4 °F 27.0 °F 62% 30.03 in 10.0 mi WSW 8.1 mph - N/A   Clear
10:51 PM 39.0 °F 32.8 °F 27.0 °F 62% 30.04 in 10.0 mi WSW 9.2 mph - N/A   Clear
11:51 PM 39.0 °F 33.4 °F 27.0 °F 62% 30.05 in 10.0 mi West 8.1 mph - N/A   Clear